User: anonymous   Login
Location: ?????
(54.9266°N, 38.5527°E)
Time: 18:31:40
(UTC+00:00)
Language:

MSX - Orbit

View from above orbital plane
View from above orbital plane
View from above satellite
View from above satellite

Ground track
Ground track

The orbit data is extracted from the following two-line orbital elements,

1 23851U 96024A   24172.83171652  .00000339  00000-0  26803-3 0  9996
2 23851  98.9708 112.1374 0008928  79.3760 280.8408 13.98242861436838
Epoch (UTC): 20 June 2024 19:57:40
Eccentricity: 0.0008928
inclination: 98.9708°
perigee height: 893 km
apogee height: 906 km
right ascension of ascending node: 112.1374°
argument of perigee: 79.3760°
revolutions per day: 13.98242861
mean anomaly at epoch: 280.8408°
orbit number at epoch: 43683

The dashed part of the orbit path shows where the satellite is in the earth's shadow,  

DLR